Location: Palomar Mountain Lodge
(33.3110°N, 116.8495°W)
Time: 15:22:55
(UTC-07:00)

USA 267 - Pass Details

Date: 19 May 2017
Orbit: 1101 x 1106 km, 123.0° (Epoch: 15 June)

Event Time Altitude Azimuth Distance (km) Brightness Sun altitude
Rises 23:21:47 0° 35° (NE) 3,917 6.5 -33.2°
Reaches altitude 10° 23:24:24 10° 29° (NNE) 2,957 5.9 -33.4°
Maximum altitude 23:30:25 41° 322° (NW) 1,535 4.3 -33.8°
Drops below altitude 10° 23:36:25 10° 254° (WSW) 2,950 5.5 -34.3°
Sets 23:39:02 0° 248° (WSW) 3,906 6.1 -34.5°
